Regional Weather Roundup
Issued by NWS

Home | Current Version | Previous Version | Graphics & Text | Print | Product List | Glossary On
Versions: 1 2 3 4 5 6 7 8 9 10 11 12 13 14 15 16 17 18 19 20 21 22 23 24 25 26 27 28 29 30 31 32 33 34 35 36 37 38 39 40 41 42 43 44 45 46 47 48 49 50
000
ASUS43 KFSD 271802
RWRSD

WEATHER ROUNDUP FOR SOUTH DAKOTA
NATIONAL WEATHER SERVICE SIOUX FALLS SD
100 PM CDT FRI MAR 27 2015

NOTE: "FAIR" INDICATES FEW OR NO CLOUDS BELOW 12,000 FEET WITH NO
SIGNIFICANT WEATHER AND/OR OBSTRUCTIONS TO VISIBILITY.


SDZ001>005-009-010-012>017-271900-
NORTHWEST AND NORTH CENTRAL SOUTH DAKOTA

CITY           SKY/WX    TMP DP  RH WIND       PRES   REMARKS
BUFFALO          N/A     57  38  48 NW26      29.89F
FAITH            N/A     50  32  50 SW8       29.94F
MOBRIDGE       CLOUDY    33  28  81 SE18      29.99F WCI  22
$$

SDZ012>016-024>037-041>051-057-063-072>074-271900-
SOUTHWEST AND SOUTH CENTRAL SOUTH DAKOTA

CITY           SKY/WX    TMP DP  RH WIND       PRES   REMARKS
RAPID CTY ARPT MOSUNNY   65  37  35 N24G38    29.96F
PIERRE         CLOUDY    35  31  85 SE15      30.03F WCI  25
CUSTER         PTSUNNY   53  33  46 NW14G29   30.04F
ELLSWORTH AFB  MOSUNNY   64  38  38 NW29G37   29.95F HAZE
PHILIP         CLOUDY    53  33  46 NW5       29.97F
PINE RIDGE     PTSUNNY   62  36  37 W18G26    30.00F
SPEARFISH      FAIR      61  37  41 W22G33    30.01F
WINNER         CLOUDY    39  30  70 S17       30.06F
$$

SDZ004>011-016>023-039-040-271900-
NORTHEAST SOUTH DAKOTA

CITY           SKY/WX    TMP DP  RH WIND       PRES   REMARKS
ABERDEEN       CLOUDY    32  17  54 S14       30.13F WCI  22
WATERTOWN      PTSUNNY   31   9  39 SW8       30.13F WCI  23
SISSETON         N/A     33  10  38 S9        30.15F WCI  25
$$

SDZ017-020-022-023-036>040-048>070-271900-
SOUTHEAST SOUTH DAKOTA

CITY           SKY/WX    TMP DP  RH WIND       PRES   REMARKS
SIOUX FALLS    CLOUDY    32   8  36 SW7       30.19F WCI  26
HURON          CLOUDY    33  13  43 S13       30.14F WCI  24
MITCHELL       CLOUDY    34  16  47 S10       30.17F WCI  26
YANKTON        PTSUNNY   34  14  44 SE7       30.21F WCI  28
$$

ABBREVIATIONS USED IN REMARKS
   TC - TEMPERATURE IN CELSIUS
  WCI - WIND CHILL INDEX
   HX - HEAT INDEX
  VSB - VISIBILITY




USA.gov is the U.S. government's official web portal to all federal, state and local government web resources and services.